User: anonymous   Login
Location: Unspecified
(0.0000°N, 0.0000°E)
Time: 17:36:29
(UTC+00:00)
Language:

N. Korean satellite - Orbit

View from above orbital plane
View from above orbital plane
View from above satellite
View from above satellite

Ground track
Ground track

The orbit data is extracted from the following two-line orbital elements,

1 39026U 12072A   19051.95565010 +.00001227 +00000-0 +47350-4 0  9994
2 39026 097.2110 058.9485 0039107 157.3409 202.9568 15.27468377343563
Epoch (UTC): 20 February 2019 22:56:08
Eccentricity: 0.0039107
inclination: 97.2110°
perigee height: 456 km
apogee height: 510 km
right ascension of ascending node: 58.9485°
argument of perigee: 157.3409°
revolutions per day: 15.27468377
mean anomaly at epoch: 202.9568°
orbit number at epoch: 34356

The dashed part of the orbit path shows where the satellite is in the earth's shadow,  

DLR